GFSGBSN_con_3kmhel_234.txt.gz
Helicity
274 306 268 198 146 131 100 77 77 73 65 64 54 49 55 53 55 63 60 58 51 36 51 47 84 54 41 8 24 70 78 63 31 38 34 18 17 16 15 23 -3 11 19 62 33 53 38
132 248 267 217 211 152 143 111 90 79 76 67 64 57 58 53 62 55 65 59 49 42 46 56 72 39 8 13 85 72 46 50 16 48 38 34 12 19 -0 42 61 28 21 33 36 33 17
53 88 204 258 174 167 162 161 139 105 85 73 68 64 61 52 59 59 57 61 72 53 52 60 40 2 10 16 54 106 40 34 13 15 13 1 -3 -1 39 25 2 38 -19 12 -9 9 12
112 41 170 234 240 154 165 190 161 138 105 82 77 69 71 55 58 68 59 56 76 83 80 39 18 2 11 18 83 42 63 28 14 10 21 -0 14 8 2 21 18 -6 2 -7 4 49 65
38 6 -9 144 204 196 133 186 172 150 127 98 86 80 71 63 64 66 64 70 86 85 43 43 22 -4 28 102 50 16 52 37 48 38 30 41 25 26 3 23 5 18 32 26 47 8 67
114 79 21 -66 127 204 204 177 184 166 151 118 95 90 75 67 72 71 72 89 83 67 30 7 24 52 26 26 56 41 8 9 14 63 38 59 49 43 59 32 19 4 55 72 31 34 81
86 115 166 157 2 266 213 167 198 152 174 131 100 98 86 71 75 81 92 96 47 7 55 70 48 52 77 77 96 42 31 48 28 46 24 25 45 67 32 58 79 9 58 2 44 16 79
43 57 88 170 7 16 262 297 174 159 145 152 125 115 100 84 81 93 109 116 151 160 107 52 33 30 41 82 65 52 60 74 43 34 15 45 54 63 50 14 -3 -14 -19 -23 -16 4 22
37 42 45 80 165 122 105 351 294 153 138 148 140 139 124 111 109 123 99 84 126 124 58 27 28 32 42 50 39 29 64 65 30 24 26 34 -20 60 39 23 22 18 10 -9 -11 10 42
37 33 27 38 80 210 66 355 319 197 164 175 152 163 162 159 160 108 95 56 91 66 67 43 16 40 60 67 79 51 39 107 40 31 11 20 10 8 44 27 26 28 11 13 13 26 29
53 38 26 20 45 76 211 81 302 204 203 200 183 186 188 159 233 81 87 24 83 88 127 74 94 220 162 187 164 43 18 160 57 50 74 25 59 51 64 21 23 17 64 28 44 28 34
59 44 32 38 19 33 126 68 78 252 295 211 207 207 203 167 217 141 131 124 119 238 131 95 162 88 105 72 96 162 124 136 109 52 43 16 28 77 36 33 53 34 52 22 22 38 63
60 52 35 30 22 45 14 119 -4 166 326 247 214 231 255 215 219 256 211 167 313 323 174 157 118 91 37 64 82 101 116 143 155 150 79 24 26 90 52 69 98 41 55 54 64 54 67
43 20 34 39 13 5 21 202 71 154 306 274 211 254 210 228 179 214 185 269 334 187 171 146 24 55 96 104 87 83 64 61 49 18 110 87 46 123 99 44 42 77 52 76 86 85 71
17 6 -0 23 43 13 24 102 93 138 302 302 267 275 266 237 150 189 254 321 342 200 110 141 91 133 82 99 135 106 71 63 37 39 163 142 49 88 100 88 24 12 107 31 58 70 69
10 8 15 -10 13 47 -8 124 123 92 319 347 409 341 251 200 219 220 279 275 239 152 188 114 119 149 145 107 122 124 112 88 56 54 60 143 155 38 76 120 70 72 31 104 147 94 40
6 11 11 13 34 77 17 163 138 112 238 350 493 447 252 218 286 319 350 161 161 151 72 156 205 141 115 104 101 135 185 101 48 75 62 103 125 119 88 207 151 79 98 101 93 141 124
-4 10 6 -1 65 78 113 313 121 111 365 328 675 543 295 311 414 306 285 263 221 53 190 243 283 193 142 120 76 105 122 175 65 44 110 114 162 180 107 70 92 38 60 66 172 171 177
-8 -17 3 3 60 103 31 383 173 353 394 471 735 887 253 420 518 407 240 127 151 116 78 196 233 309 301 274 210 137 115 87 109 127 259 201 249 237 169 140 163 140 115 139 126 110 93
-16 -13 -0 2 54 140 129 212 126 296 211 566 891 1034 526 350 289 316 304 234 206 132 168 145 215 282 286 296 209 209 211 184 149 220 314 300 238 246 228 175 125 137 88 69 89 205 176
-4 -26 -15 1 32 123 400 206 114 243 336 649 596 659 756 557 305 227 300 271 268 208 173 241 231 162 164 276 235 264 255 210 217 243 299 302 263 208 137 115 114 117 166 179 223 163 147
-9 1 -24 6 11 246 424 203 135 256 296 617 579 533 440 579 360 379 361 268 190 190 228 201 263 207 186 162 217 237 298 223 268 252 330 270 202 184 138 129 125 88 157 230 204 159 159
-2 9 7 27 -7 481 697 180 220 356 315 571 599 453 568 666 384 450 333 322 311 192 235 191 218 347 293 194 221 189 159 224 223 208 215 220 212 247 142 242 203 103 219 220 205 192 212
20 -14 -5 15 -3 505 667 123 297 296 235 369 625 552 562 583 637 436 241 359 374 251 266 148 251 190 267 318 285 174 176 185 196 217 285 241 280 339 279 318 251 362 189 152 144 183 188
44 29 -5 19 24 467 622 224 200 242 166 529 900 645 610 598 412 313 251 243 268 347 256 264 260 206 199 237 305 348 326 232 163 192 216 274 426 574 541 399 289 75 338 206 188 144 94
33 46 27 -5 34 251 461 577 564 234 439 864 827 754 592 371 402 303 288 264 305 292 297 268 229 226 220 318 438 346 429 351 303 323 347 395 407 538 610 551 300 196 62 32 108 -15 46
27 56 58 17 39 112 295 418 551 673 688 787 679 550 523 512 558 579 465 341 297 284 298 277 241 266 351 391 438 546 503 453 441 397 534 388 377 457 433 370 202 244 286 174 198 286 121
39 51 71 70 79 78 177 249 372 580 587 637 783 681 459 456 447 449 455 449 520 371 321 398 365 428 389 378 520 676 703 656 507 345 468 509 440 347 292 296 189 130 109 102 183 83 53
32 32 50 31 53 33 41 98 164 273 448 611 874 686 634 705 601 528 558 470 495 550 448 549 437 541 565 524 810 733 794 513 544 370 279 304 337 377 346 390 293 301 226 146 169 233 99

GFSGBSN_con_3kmhel_237.txt.gz
Helicity
121 199 249 238 181 193 126 140 111 86 64 68 66 60 52 52 66 62 63 52 53 49 63 86 86 60 10 24 17 45 47 28 40 37 22 40 26 11 4 15 -7 -12 -5 -23 1 46 30
52 116 115 172 190 211 187 142 153 125 96 71 70 62 60 56 61 68 64 55 54 61 68 79 71 52 5 29 41 105 57 52 6 24 46 46 57 -18 -35 -18 -40 11 33 2 26 36 56
107 68 116 102 160 190 188 180 130 156 138 111 86 64 61 56 63 62 74 74 61 71 74 65 50 -6 9 24 47 75 23 40 36 23 48 -12 47 45 -1 -34 30 63 -57 -46 -16 8 -39
137 125 75 85 110 158 176 184 152 116 160 164 118 88 65 59 63 64 66 77 90 79 82 61 16 8 1 13 5 7 74 30 -7 3 32 24 77 47 57 27 -18 1 1 -27 2 31 18
122 113 136 140 16 103 150 166 179 132 126 169 158 115 92 65 64 67 73 76 105 112 64 48 32 7 24 26 32 5 38 76 31 35 13 42 56 56 34 36 14 51 37 56 219 146 134
111 114 106 140 64 73 61 145 153 165 126 161 184 135 113 85 70 73 86 87 131 70 48 10 46 73 45 54 32 30 13 44 19 56 49 52 75 90 62 81 68 79 7 20 89 65 27
100 111 102 115 76 109 74 86 184 211 197 157 190 172 129 114 84 81 100 87 94 63 42 89 58 146 62 24 75 58 20 40 51 43 67 37 63 64 80 109 149 129 91 37 -3 -27 26
66 85 84 77 112 90 168 157 129 253 235 187 196 172 145 141 120 94 115 160 123 181 74 101 83 49 9 -56 60 45 57 91 90 62 41 44 50 63 31 27 19 -28 -29 -36 -59 -4 45
63 61 68 64 56 106 101 120 85 67 263 215 222 181 168 152 144 166 150 130 83 186 50 -9 66 84 46 49 23 94 98 86 91 69 52 33 38 29 8 25 20 8 31 22 8 52 81
52 52 62 60 38 47 72 88 165 89 143 221 271 187 183 194 212 184 177 85 82 106 84 1 17 71 131 125 90 90 147 117 114 60 37 28 28 28 0 64 56 9 22 30 13 27 27
68 44 41 57 50 41 38 44 90 214 46 244 271 215 145 194 223 172 157 61 108 147 225 68 54 125 98 254 211 73 142 165 101 157 127 83 45 66 53 43 64 13 32 35 21 27 49
69 64 49 36 47 44 40 33 31 85 26 114 396 279 150 195 212 137 73 143 205 361 248 193 157 186 242 140 175 171 132 128 149 141 57 -11 -9 74 57 55 59 41 43 34 48 97 89
61 58 50 45 50 50 45 33 31 49 179 -10 310 347 188 217 194 64 218 253 458 466 287 257 219 210 153 169 144 132 153 179 234 242 103 74 7 -61 108 72 82 125 95 68 77 105 112
50 51 52 35 38 39 33 22 23 17 95 136 136 301 224 239 136 77 256 376 568 306 274 239 179 168 155 142 118 116 138 118 128 173 171 127 117 44 126 146 133 118 113 108 57 91 63
54 47 42 41 35 20 36 47 49 28 77 187 189 233 379 251 126 127 312 386 525 308 241 308 229 222 172 132 169 174 149 121 141 77 177 149 122 58 136 171 126 69 210 102 120 80 131
52 45 44 38 39 7 15 24 46 59 48 84 72 131 352 257 168 252 284 422 356 293 338 132 175 202 205 168 173 141 155 120 103 61 83 150 152 144 93 165 105 97 110 173 154 188 170
54 50 47 39 39 34 17 21 28 56 50 141 116 156 185 321 298 394 313 318 273 301 180 384 292 251 209 194 151 202 137 92 76 86 61 79 120 52 129 190 229 196 168 187 174 196 220
50 52 46 40 36 36 34 18 8 35 70 128 193 279 270 496 523 462 326 155 328 285 254 223 61 148 279 220 203 173 169 155 45 56 71 84 142 156 61 85 90 128 151 225 268 209 230
33 47 56 46 40 29 39 18 -6 34 100 107 168 254 288 522 632 570 199 255 255 342 153 230 254 197 114 174 234 169 172 110 76 86 128 182 222 180 184 119 128 190 257 207 188 223 237
23 23 37 34 32 31 48 8 8 62 106 71 123 156 447 511 469 586 449 421 336 217 220 248 274 215 299 285 269 330 173 230 149 214 219 219 216 230 209 156 150 173 169 184 204 231 213
-21 -40 -41 -15 11 29 47 14 47 61 101 76 123 194 696 636 399 383 438 517 549 361 160 208 201 190 301 329 295 315 284 256 272 241 270 257 229 215 149 172 178 136 132 125 124 115 211
92 -14 -16 -18 29 33 39 21 49 61 119 42 30 339 564 557 356 362 537 657 415 369 290 14 246 231 333 368 358 355 267 266 245 241 256 287 285 224 113 164 140 96 83 101 153 189 159
63 86 1 -3 11 39 40 34 52 75 90 -116 115 488 644 488 355 602 612 546 495 328 257 157 178 303 309 243 236 123 101 182 235 269 278 265 260 283 182 210 159 0 197 200 166 175 230
75 45 22 15 -8 -1 12 44 44 85 -1 111 262 569 692 587 564 461 384 467 505 416 273 141 262 193 324 216 325 344 302 225 210 219 264 297 287 273 238 279 272 383 264 224 263 257 187
25 45 29 10 -22 -4 20 46 27 67 -44 -110 489 609 679 732 339 310 380 386 423 326 314 219 136 279 195 319 430 436 402 263 150 198 188 303 372 378 317 355 274 -27 317 267 138 -1 152
6 26 22 35 -27 22 38 76 409 81 84 94 285 509 691 544 341 259 353 463 407 318 361 276 224 155 266 336 425 458 436 458 340 262 213 238 241 330 431 430 310 72 216 137 208 58 35
-14 3 34 42 -1 27 97 662 158 100 104 264 288 509 477 384 481 463 311 285 402 321 392 459 375 449 379 482 509 582 488 423 407 365 480 313 388 364 367 456 403 439 394 357 227 320 243
15 6 25 12 -15 52 142 752 276 207 223 361 526 507 420 550 581 478 490 481 449 331 379 442 472 458 570 405 425 462 403 458 423 295 358 488 531 491 445 416 262 350 290 200 270 211 152
25 -5 32 32 8 57 61 551 785 422 289 485 663 651 467 636 552 560 478 600 614 570 471 635 576 538 502 495 448 445 445 523 419 322 385 468 598 501 618 591 507 342 278 205 267 114 116

GFSGBSN_con_3kmhel_240.txt.gz
Helicity
127 163 126 147 180 204 172 153 159 131 126 109 90 77 85 80 87 91 79 71 67 97 99 77 46 67 -4 31 15 29 68 59 39 16 23 11 6 35 5 -34 27 -6 32 50 44 51 -11
226 138 141 113 139 161 176 183 166 128 113 132 114 92 84 81 87 82 86 78 80 85 108 92 56 39 -6 57 11 56 66 59 19 1 2 49 44 23 12 -34 -28 -14 6 22 14 41 18
208 207 188 114 135 147 121 148 126 155 95 92 127 124 108 86 89 88 77 78 86 96 103 84 64 -25 -5 41 34 45 70 18 19 30 56 34 25 31 14 2 27 2 -35 -89 -76 -6 -10
150 174 185 186 165 150 141 125 105 158 156 91 83 122 127 121 99 93 92 82 88 107 103 73 28 2 -16 31 31 27 51 9 -4 45 68 40 22 18 37 51 27 -8 17 -3 18 39 -30
94 128 122 152 156 168 217 138 120 119 157 145 97 101 114 134 136 108 98 99 101 117 84 59 30 16 3 50 37 19 100 55 -21 20 36 54 54 49 59 48 34 46 27 11 42 27 53
76 96 119 104 108 132 151 221 197 154 145 150 128 125 122 114 147 137 123 109 132 90 65 40 98 69 55 64 39 32 55 58 54 43 77 60 71 60 83 77 23 55 111 58 19 82 3
58 77 86 105 106 91 100 129 206 183 136 173 175 139 158 128 133 149 162 151 126 116 123 106 104 147 113 89 69 38 24 55 68 77 75 60 79 65 97 113 86 94 97 71 13 40 -15
48 51 67 65 85 92 79 93 144 213 222 155 205 190 144 188 132 132 169 197 211 159 125 117 113 80 62 95 126 67 72 80 89 58 71 64 37 69 64 42 43 42 64 23 -15 13 33
54 47 45 50 61 70 71 83 84 127 212 171 167 287 181 213 197 172 192 155 145 174 99 25 116 104 90 80 68 21 65 95 116 101 96 72 56 36 48 13 -12 17 24 29 16 -0 23
75 71 60 51 53 66 53 50 73 81 129 196 230 216 249 261 218 211 172 86 57 142 156 33 90 88 154 137 130 93 109 114 139 89 113 57 27 55 30 11 23 -16 59 12 27 24 24
84 76 73 66 52 53 53 48 47 55 74 126 214 224 339 223 237 215 191 55 123 202 243 98 111 144 130 283 242 149 189 232 110 214 168 93 58 78 75 61 74 45 46 34 36 35 -12
94 86 80 70 70 52 38 37 45 44 38 57 112 131 345 338 254 163 134 127 215 382 274 301 148 183 287 270 265 245 185 252 138 185 160 68 93 50 74 88 75 70 73 72 83 85 64
92 94 84 78 63 60 44 34 37 51 31 27 68 87 198 277 366 110 180 316 534 526 383 352 349 263 263 212 243 260 262 239 220 231 126 72 26 -36 23 51 69 100 144 117 139 133 61
80 79 78 77 82 67 42 38 38 38 41 26 59 112 130 96 229 106 230 509 620 479 354 428 332 258 234 347 220 281 257 187 125 219 172 125 97 104 118 150 122 142 178 149 108 104 77
74 79 74 66 69 66 55 43 38 41 40 25 38 59 47 82 336 114 352 490 591 521 335 436 366 453 383 290 219 261 192 192 169 209 210 142 120 85 136 145 205 122 181 114 166 161 161
44 54 70 74 80 70 52 51 36 37 38 26 -20 34 95 163 183 225 413 362 369 268 444 247 382 383 361 286 297 254 219 201 213 189 264 156 104 89 89 174 152 180 121 198 242 186 145
51 36 49 64 66 66 55 42 34 40 30 25 43 72 -229 15 166 165 483 561 222 188 321 185 187 313 321 383 256 283 209 229 120 128 141 175 151 139 222 203 208 210 156 190 173 263 200
62 63 42 57 60 69 61 47 40 48 21 64 95 132 -102 -1 323 460 634 412 141 295 147 313 289 162 333 269 300 264 231 185 86 148 82 208 144 90 86 130 128 131 141 184 256 202 242
71 45 39 55 54 56 56 51 41 55 32 106 79 44 36 171 250 284 629 126 220 196 164 228 300 252 273 295 372 287 254 181 135 139 158 216 191 209 199 122 81 162 163 193 217 255 246
24 64 67 75 38 50 57 59 59 65 59 96 95 1 -22 -53 214 150 405 220 368 248 194 237 287 236 208 249 369 383 331 325 179 133 139 160 218 220 230 160 205 195 231 230 237 315 284
39 45 11 64 34 56 68 70 72 86 76 120 100 33 101 31 336 291 171 308 199 333 261 162 216 164 175 273 349 415 329 293 304 243 246 229 194 235 180 175 153 101 89 131 170 201 194
33 49 43 44 144 59 72 72 74 92 94 148 116 102 104 2 257 356 251 370 406 363 413 278 243 16 214 272 303 433 293 240 261 297 374 361 249 198 193 195 170 117 97 99 83 97 120
-8 -2 49 28 74 34 -25 54 72 102 130 157 94 60 23 153 162 362 245 226 189 296 269 233 351 383 237 255 241 183 255 254 254 312 372 358 340 319 220 220 212 103 142 143 162 184 166
14 -21 20 49 80 58 7 -37 72 91 155 181 131 59 -7 129 116 248 248 238 244 411 210 391 180 317 365 260 298 298 314 263 274 303 281 301 319 323 264 317 219 272 150 181 207 174 182
3 5 -11 8 58 33 28 31 -35 -1 140 180 149 145 23 121 174 196 215 291 360 502 234 220 241 134 185 329 366 449 372 241 165 193 286 264 319 350 312 310 233 141 275 260 180 117 155
-5 -7 -6 11 19 26 -32 -1 -18 32 113 152 120 115 15 -176 154 239 261 258 473 436 344 202 341 171 274 402 374 380 448 309 261 231 169 302 259 298 329 297 252 177 173 166 209 198 333
19 14 1 1 25 30 36 10 47 82 128 138 86 77 3 -284 60 157 286 315 344 328 490 499 302 425 372 425 339 424 469 382 362 296 294 286 424 331 383 396 313 370 337 324 264 320 433
30 20 -1 2 14 36 23 -11 -15 -46 -68 122 20 42 22 -151 291 370 395 268 365 425 462 450 444 423 431 477 519 477 455 466 429 372 345 370 371 336 380 430 259 401 372 326 338 432 360
25 19 21 39 51 69 8 12 32 61 36 57 -9 47 120 44 482 533 553 531 479 479 506 643 491 534 476 583 585 489 522 565 453 328 437 417 526 462 394 368 378 358 338 436 428 339 437

GFSGBSN_con_3kmhel_246.txt.gz
Helicity
191 167 175 164 145 142 134 120 118 109 82 83 78 76 74 80 79 68 72 84 100 96 80 61 75 123 11 50 37 29 44 58 57 39 20 21 22 17 17 27 14 36 -9 -15 -107 -57 -73
175 211 162 160 148 150 161 161 135 139 148 131 117 89 83 75 73 79 63 59 80 100 98 72 70 79 -3 57 36 33 40 44 49 48 32 29 27 12 11 25 35 24 25 -28 -87 -63 -52
147 179 195 212 181 158 160 148 150 148 148 158 154 131 98 81 82 79 85 66 66 83 93 95 55 -10 -11 37 45 44 22 31 43 57 58 51 40 38 21 11 41 28 -10 -14 19 8 -4
119 117 141 179 194 190 193 169 170 164 139 125 136 131 145 104 90 84 81 91 73 72 94 60 59 -8 -27 24 41 26 47 46 40 44 58 68 64 54 36 27 56 52 57 37 72 100 90
101 91 99 118 144 159 164 180 168 167 163 161 125 136 145 147 120 101 86 82 91 75 65 58 33 18 -15 72 49 32 103 61 62 54 56 86 91 73 71 62 47 62 33 18 41 130 120
102 100 93 94 110 116 126 137 142 153 167 180 161 150 134 180 171 127 98 71 84 75 35 23 77 66 76 56 86 113 91 108 109 102 117 125 128 111 105 109 49 61 28 26 19 81 65
120 96 102 98 100 98 99 113 124 121 150 170 193 196 168 174 172 169 65 65 94 69 111 97 83 135 130 100 95 76 73 156 156 131 139 141 134 100 91 112 74 45 43 21 78 143 -10
117 106 97 84 85 96 93 93 101 108 103 130 167 205 195 184 178 243 81 95 115 114 56 29 64 111 103 61 116 148 134 159 172 139 149 150 91 67 89 94 76 47 28 1 24 41 57
88 94 100 95 90 82 86 89 92 91 80 89 107 138 178 172 210 148 112 112 182 276 48 -28 84 79 120 96 66 89 143 146 148 152 140 150 109 90 115 124 89 81 84 79 42 46 53
76 69 70 75 86 93 93 89 92 94 70 75 77 92 123 198 173 207 126 101 132 210 124 22 36 78 166 154 114 115 109 121 159 90 145 97 104 97 83 88 112 62 58 72 49 54 42
58 59 54 51 53 56 72 82 88 84 81 79 75 73 77 90 188 256 267 390 146 311 318 144 87 176 98 288 234 169 206 237 174 175 188 128 84 89 92 90 114 72 59 92 111 81 80
40 42 48 48 47 53 49 56 73 82 76 83 85 80 65 66 86 173 205 274 367 419 395 466 210 199 252 181 261 208 208 290 195 168 172 109 88 86 69 79 76 107 90 132 163 139 120
54 58 60 60 63 62 61 63 75 83 84 85 96 92 72 72 83 133 40 241 354 212 446 438 437 287 221 241 260 288 321 325 345 318 194 116 160 217 145 110 88 96 161 170 161 189 163
72 72 71 71 66 67 74 81 82 90 89 89 102 117 108 96 70 61 8 204 343 187 221 294 351 352 216 315 287 275 330 320 220 406 228 181 98 170 184 185 196 165 240 215 125 157 119
81 67 61 58 62 68 73 84 90 89 91 98 123 108 97 86 66 42 91 149 378 363 238 301 378 314 279 247 262 330 256 322 359 374 310 300 208 167 141 183 246 206 260 257 257 213 215
75 70 75 75 73 72 67 72 81 91 93 96 142 124 94 67 75 128 136 181 242 294 390 98 259 248 230 273 306 334 288 242 365 319 415 294 229 149 181 236 174 182 150 299 362 275 274
51 49 62 77 90 94 88 71 73 77 90 101 192 165 55 29 178 208 212 167 63 114 244 358 141 267 360 242 229 291 279 316 228 276 295 379 317 274 224 192 222 250 209 267 284 345 300
60 60 65 68 76 77 74 75 54 53 67 126 250 276 179 130 131 242 181 197 21 102 327 192 317 152 183 347 228 223 233 235 217 369 347 324 234 245 283 202 197 228 198 286 339 331 367
55 56 62 70 61 66 61 70 61 62 79 246 317 305 223 134 177 177 206 120 63 -81 109 248 335 285 157 81 311 272 224 219 237 235 291 350 365 345 306 292 217 232 207 220 333 289 276
56 63 64 56 50 48 51 51 44 63 82 248 313 383 293 277 239 187 129 106 89 -147 -51 243 264 193 378 298 286 343 269 173 159 169 239 341 334 252 265 255 220 375 303 270 293 319 305
61 69 75 64 56 47 43 40 39 58 81 254 334 426 394 250 246 145 134 154 60 -67 -97 32 278 242 204 282 298 334 252 168 111 188 225 268 207 228 228 196 164 153 207 293 277 211 307
51 56 68 70 47 48 40 51 53 46 55 228 410 489 382 311 246 147 90 77 61 111 -97 95 167 159 189 192 275 312 238 123 114 145 251 410 285 195 236 192 185 192 122 129 291 266 239
42 46 54 49 2 29 43 45 53 49 78 112 428 404 337 278 209 227 130 63 31 34 45 164 170 238 200 87 146 160 294 140 81 110 203 274 255 224 215 131 174 186 103 186 195 256 241
42 43 50 45 33 24 24 35 48 57 64 82 198 446 454 357 301 200 100 83 53 63 -69 63 23 223 53 20 157 156 139 258 421 123 43 229 254 268 229 146 180 109 235 193 180 163 181
57 46 33 45 45 36 19 22 35 40 31 17 180 472 488 416 307 158 97 77 30 -16 91 -7 -115 129 85 28 206 132 212 163 226 243 168 223 312 276 257 272 289 227 296 252 261 165 139
57 64 55 47 45 43 43 25 36 43 29 37 34 464 423 422 317 164 123 90 50 3 7 5 -52 -12 104 113 140 250 359 351 164 207 224 274 236 304 284 253 211 268 116 167 212 163 177
50 45 45 34 29 37 55 60 49 44 9 64 46 248 391 393 277 251 156 79 26 -17 0 101 106 64 83 179 237 286 337 316 409 265 402 399 357 301 353 295 318 222 161 248 310 215 203
59 71 44 21 26 16 30 43 55 53 15 69 3 101 369 424 356 246 224 114 26 -14 34 73 150 152 203 206 298 542 302 263 324 199 276 298 302 333 293 265 210 186 314 324 243 201 125
-8 66 64 32 18 7 20 25 43 46 15 70 40 70 162 349 251 148 165 91 39 29 -23 54 103 276 189 276 309 409 334 311 286 309 390 226 254 277 276 292 254 325 294 315 249 237 228

GFSGBSN_con_3kmhel_249.txt.gz
Helicity
163 191 201 180 156 147 138 126 113 100 93 90 84 76 71 76 74 70 71 70 71 80 63 41 56 109 14 56 39 32 46 64 66 35 15 25 25 29 31 31 25 25 -20 -27 -58 -72 -72
184 189 202 219 201 166 151 157 150 110 96 87 80 72 71 74 74 74 70 62 72 74 79 61 46 54 6 53 43 44 52 64 38 48 32 31 23 13 22 27 33 31 11 -14 -21 -18 -77
144 154 189 200 198 195 201 154 145 152 134 103 92 85 94 86 77 79 74 74 66 62 79 66 42 -25 4 38 43 56 33 42 37 40 53 56 56 43 26 22 32 34 3 15 38 26 30
143 138 148 180 189 184 179 183 158 143 131 130 169 138 129 131 103 80 80 67 71 76 69 51 35 -15 -2 28 41 40 44 46 47 38 52 80 67 62 47 42 33 36 48 41 55 71 118
123 115 125 155 170 175 184 180 178 181 161 155 145 148 150 131 152 117 86 89 79 58 57 51 8 15 -10 76 56 58 78 68 83 77 73 92 92 93 77 57 37 58 40 40 34 54 100
125 103 103 117 147 162 168 159 161 172 175 189 169 154 152 149 143 157 120 64 79 63 52 53 60 59 95 90 104 99 92 100 135 130 116 120 145 92 123 98 56 61 48 40 28 51 59
160 134 118 109 122 138 152 151 155 157 142 149 168 175 173 141 153 126 90 75 71 60 97 63 62 72 128 172 100 115 74 123 166 186 142 154 139 85 79 91 91 61 43 21 50 53 16
134 137 139 135 118 124 125 135 140 143 137 125 138 139 147 181 180 151 45 96 122 101 67 47 38 98 80 51 114 165 74 134 156 149 196 177 103 79 85 74 72 57 37 28 33 39 16
106 107 110 117 115 121 123 123 130 139 157 125 120 116 123 146 176 130 101 119 139 147 70 -18 52 65 98 73 84 99 125 170 178 190 151 146 131 87 93 112 105 64 54 47 67 75 49
81 90 92 96 102 106 114 126 129 123 127 128 125 122 110 172 81 127 156 407 167 241 186 34 4 56 153 179 114 98 76 159 194 123 173 129 98 114 89 106 102 76 25 27 55 58 73
74 79 77 78 81 85 90 93 100 119 115 103 113 113 100 111 106 124 201 268 210 235 123 179 98 170 101 175 220 118 190 212 227 233 234 162 109 103 89 39 96 72 48 53 68 87 105
78 70 63 57 53 54 58 54 65 78 93 82 83 93 95 75 78 94 125 122 266 291 255 178 229 78 176 149 260 259 236 312 186 186 191 138 139 98 92 103 86 93 102 117 117 125 124
57 48 45 47 47 45 57 62 61 69 80 86 91 107 73 57 115 97 102 162 266 270 262 228 185 107 86 123 193 224 397 386 320 322 217 161 166 183 197 147 114 153 188 130 92 119 147
58 37 32 33 35 41 52 64 67 70 75 82 98 115 113 75 75 90 126 235 345 174 274 273 239 214 140 141 162 159 216 311 269 320 209 231 182 175 193 167 202 198 223 190 116 133 115
54 61 60 46 43 46 55 63 63 72 76 74 125 103 99 84 61 53 185 324 362 316 315 270 216 242 176 202 182 118 137 172 278 324 330 298 217 220 198 214 237 187 227 118 196 185 152
61 60 53 59 71 74 77 78 75 74 79 97 126 129 98 93 53 136 241 245 289 285 401 406 302 307 139 68 210 213 146 191 156 193 285 278 214 176 196 254 155 199 137 220 248 235 237
65 62 54 61 78 90 94 91 87 66 67 111 159 159 158 66 123 253 311 292 201 169 263 217 328 338 328 257 143 255 254 215 149 189 189 299 253 212 256 240 260 314 249 291 263 252 234
60 52 54 60 79 81 85 95 86 84 67 158 231 227 153 101 256 310 295 314 207 147 87 148 202 237 270 224 359 209 173 156 188 146 212 202 205 202 222 249 244 241 242 358 301 204 252
41 43 41 47 56 69 73 78 80 79 73 264 294 280 206 220 259 246 270 201 198 160 164 108 105 88 143 220 199 317 145 148 187 202 234 271 294 235 220 204 265 255 220 210 250 269 190
26 31 39 47 56 62 63 69 71 67 53 193 310 307 315 291 270 212 164 151 157 173 146 127 112 79 52 208 291 272 264 201 170 155 156 246 266 251 236 198 288 328 295 223 247 317 171
34 42 46 52 46 48 54 59 54 53 49 146 269 397 356 266 259 233 239 209 146 166 167 167 96 1 34 -7 218 266 150 62 178 149 166 214 243 186 135 146 216 173 158 200 264 204 286
33 43 46 48 54 55 53 55 60 52 52 110 284 340 381 330 258 157 148 172 144 128 237 152 102 85 40 -53 21 297 325 95 5 71 190 253 265 185 148 121 139 142 123 122 122 165 211
32 42 44 53 61 57 62 74 72 46 56 103 65 213 388 262 332 304 301 248 154 93 94 98 108 70 94 118 43 -31 -8 127 145 67 38 262 383 204 98 83 110 174 181 186 150 170 148
18 16 39 50 57 62 60 54 51 34 74 150 150 94 145 400 360 354 278 266 226 162 96 57 58 18 -1 61 48 -174 -14 96 144 200 161 188 270 156 169 194 186 123 145 180 146 182 207
26 33 52 60 67 61 61 70 50 36 37 105 133 136 125 197 259 246 229 233 203 122 107 83 37 33 51 -1 -297 -146 79 37 125 121 222 215 338 262 139 274 265 230 237 176 147 122 127
19 15 64 72 76 85 63 35 43 45 22 75 95 157 139 179 237 227 248 296 247 246 114 79 42 -0 -23 6 -112 -85 188 323 251 163 160 177 262 214 254 272 356 167 135 97 106 117 38
41 26 53 85 86 89 70 67 62 61 45 85 140 147 170 149 -6 51 278 209 265 205 124 88 54 12 -33 33 -161 -58 39 190 301 322 342 244 263 251 197 246 206 196 99 188 165 127 209
43 -5 -18 44 90 100 74 59 57 55 63 101 164 183 139 198 73 11 138 398 248 228 180 77 38 -32 -32 -6 -144 -121 260 188 168 191 298 285 267 324 370 222 84 117 232 215 225 270 229
28 1 -2 2 6 73 74 55 40 47 49 94 139 264 254 223 140 58 156 234 213 266 222 149 78 -6 -41 4 -78 -4 27 102 124 221 197 196 262 330 374 345 249 214 248 281 236 211 163

GFSGBSN_con_3kmhel_252.txt.gz
Helicity
156 198 211 185 197 193 227 174 148 128 114 99 89 79 76 76 65 64 63 59 53 51 50 48 79 130 50 72 55 49 30 46 30 18 -7 10 -3 -4 -12 10 2 -6 -18 -46 -68 -82 -55
174 173 181 181 173 206 201 208 190 158 136 112 116 100 96 91 66 57 61 62 59 59 47 41 50 104 29 85 51 47 51 50 23 13 20 14 28 23 1 -2 -7 11 -23 -17 -3 -19 -14
143 159 200 203 196 188 196 164 175 171 165 134 114 105 106 86 85 56 42 45 51 55 59 43 28 -2 26 60 57 52 36 37 35 22 24 36 46 35 47 12 27 2 -20 -13 17 37 33
126 124 149 175 203 238 226 199 196 200 169 180 156 123 107 95 93 95 79 56 56 53 47 36 28 -15 5 43 57 42 29 15 39 24 37 70 67 55 35 50 10 5 13 6 93 47 84
107 106 119 136 156 174 189 219 212 211 202 182 178 180 153 132 117 143 132 105 78 57 36 23 -5 9 -9 42 52 66 36 43 41 56 70 93 74 69 45 18 21 44 12 36 30 48 66
101 93 98 119 140 150 158 164 178 206 203 203 205 208 197 188 171 157 190 96 85 54 20 31 57 24 40 93 111 140 94 61 80 74 93 80 77 45 43 55 43 63 24 35 34 55 25
145 122 100 106 115 139 143 155 156 169 176 173 192 199 213 249 242 213 172 112 46 43 64 81 96 93 93 118 57 46 90 103 78 90 88 74 80 48 29 39 49 59 35 20 31 37 2
138 144 135 122 115 129 130 138 132 143 164 144 150 175 187 218 229 236 124 211 262 249 108 99 74 85 82 82 94 102 68 110 106 96 69 139 75 33 61 65 59 62 46 20 34 62 46
119 122 116 116 114 118 129 135 141 139 138 140 140 148 167 187 172 120 172 240 244 213 94 53 60 66 56 65 76 62 70 126 118 99 104 67 81 86 72 58 74 71 52 34 32 71 32
85 94 101 100 96 104 112 119 125 138 141 128 127 132 146 197 93 143 149 238 201 138 158 73 -2 57 83 106 83 41 68 101 119 124 81 100 60 90 106 96 64 64 56 43 42 64 72
77 81 80 78 81 82 88 101 119 128 136 127 117 126 131 123 90 109 158 182 126 121 212 102 77 186 172 73 122 14 68 110 99 85 178 112 113 95 82 42 56 55 85 35 50 53 82
81 76 72 70 68 68 66 71 84 108 122 118 116 117 94 65 78 96 136 86 79 207 276 274 297 121 78 27 58 168 142 87 79 104 110 98 96 126 81 57 61 140 82 72 53 71 84
74 73 65 61 55 48 44 42 51 69 88 100 97 104 82 66 90 96 112 74 181 261 304 247 235 233 160 81 84 72 114 183 228 204 151 96 115 147 156 121 141 97 102 134 102 149 111
83 78 51 41 44 45 49 49 54 64 88 107 106 105 98 85 80 102 93 175 170 147 164 255 259 267 180 171 95 23 110 58 71 114 126 90 112 108 142 133 184 135 117 127 125 102 90
78 69 72 63 42 42 46 49 54 57 70 101 72 111 96 98 85 106 136 191 207 119 178 209 193 201 201 128 176 97 23 64 45 80 111 157 88 89 78 72 146 153 151 67 88 79 132
64 68 67 64 63 67 55 40 37 40 47 82 110 111 93 101 87 136 191 231 200 183 190 181 133 141 149 119 105 108 117 127 69 57 57 114 141 77 84 120 88 93 120 115 144 143 127
61 60 70 75 71 64 60 63 61 51 53 81 97 79 164 51 122 199 258 235 172 175 156 141 155 171 178 167 266 237 89 107 106 87 60 128 103 145 86 147 94 193 162 216 167 146 153
69 66 67 66 66 67 59 56 46 51 89 102 147 168 146 90 208 245 233 260 213 150 187 169 147 162 146 214 162 220 255 132 73 9 81 204 235 160 129 108 88 105 121 159 219 151 131
60 61 62 57 53 51 49 43 57 75 106 212 208 168 151 95 257 207 191 191 137 166 162 186 162 138 112 98 146 163 180 150 169 210 83 121 262 219 63 89 82 158 100 98 98 140 153
61 54 54 49 40 37 39 52 65 73 80 166 236 219 234 259 216 176 151 118 127 141 142 124 149 177 141 126 103 103 133 113 325 412 342 77 169 225 185 131 123 126 130 124 129 222 176
56 31 29 32 29 32 41 53 56 51 60 155 271 323 269 293 237 111 110 153 118 109 119 177 118 109 106 112 114 91 75 16 99 179 239 165 148 136 103 17 126 44 57 60 126 156 149
33 42 35 28 30 38 38 40 52 58 68 195 330 367 253 215 181 127 94 89 71 59 70 95 82 98 118 81 76 81 97 3 -17 36 124 149 199 108 83 54 -5 129 122 114 73 51 77
22 10 21 33 45 46 49 55 58 57 68 217 270 297 290 211 135 228 267 110 55 36 38 36 41 70 87 98 130 145 126 43 1 35 245 218 170 255 102 125 175 166 118 129 86 110 104
15 21 26 35 34 31 45 58 62 61 91 154 240 198 213 69 124 190 124 97 57 28 25 33 25 34 19 25 44 37 80 51 41 -217 -47 220 211 99 175 158 154 70 121 116 96 79 91
20 22 19 23 35 48 63 69 76 79 66 144 171 213 211 90 46 54 58 28 58 51 35 27 21 33 57 58 83 83 35 34 -135 -402 -149 116 105 69 131 192 239 113 92 154 133 147 96
23 33 49 63 71 59 71 89 81 69 77 105 124 149 169 203 64 61 67 90 68 69 53 30 34 56 64 89 72 81 120 146 -225 -296 -99 101 124 155 164 38 80 28 80 103 132 110 135
39 43 51 50 46 53 60 83 94 97 76 94 155 129 147 169 66 101 189 125 100 104 80 30 27 37 48 86 91 81 82 54 37 128 170 55 229 190 108 122 65 145 205 98 212 88 148
49 40 22 15 26 32 21 57 101 110 104 106 112 138 189 190 96 77 23 25 130 130 49 55 89 100 88 107 106 92 81 61 9 15 -8 85 220 309 249 159 50 94 163 319 187 155 156
6 2 19 28 33 12 -23 -20 33 119 125 95 116 146 174 205 178 73 45 86 67 64 101 78 128 87 68 90 85 69 48 28 45 -20 16 -69 194 318 259 358 167 59 99 195 146 147 153

GFSGBSN_con_3kmhel_255.txt.gz
Helicity
175 186 182 216 240 229 205 181 172 161 160 134 111 94 94 95 94 90 85 77 76 73 68 66 88 132 77 78 80 35 24 47 20 -29 -35 -10 -17 -16 -20 -1 11 -5 -7 -11 -41 -43 -34
167 151 178 174 184 172 224 189 137 158 155 164 150 138 113 101 93 90 85 83 85 83 74 68 74 135 44 102 73 48 37 32 -10 -10 -9 -8 -4 9 -7 -14 -16 5 -5 -11 -6 -8 -14
169 171 188 174 159 195 199 172 151 152 153 166 168 157 145 130 114 89 87 82 71 76 64 62 51 30 50 49 57 56 54 27 13 11 14 17 10 15 35 1 10 -5 -19 -16 19 29 33
135 159 158 169 184 198 191 171 132 147 172 166 156 158 158 146 134 123 105 92 70 47 46 36 32 21 16 56 60 41 35 21 29 16 30 59 26 15 11 16 8 -4 -5 1 78 75 56
87 104 124 144 154 157 169 176 158 153 171 138 153 134 158 170 143 148 147 107 80 45 31 23 -2 -4 -3 57 2 51 60 44 34 27 41 68 33 20 19 15 12 17 14 14 25 93 47
82 89 96 114 127 130 141 146 144 164 152 145 146 131 133 131 144 128 168 129 82 66 -3 21 23 19 32 46 78 88 91 96 64 65 58 54 57 36 36 34 35 -1 31 35 33 48 28
92 86 82 93 102 109 114 117 129 139 133 127 131 138 138 150 160 149 125 81 2 -39 28 54 55 46 106 111 31 26 65 77 93 90 83 51 65 73 31 26 35 50 58 46 31 39 39
145 139 120 95 104 107 110 111 120 123 123 117 118 121 124 117 126 129 106 205 306 235 168 62 59 99 71 130 98 45 42 79 63 103 58 62 86 59 31 39 51 69 49 39 35 30 82
121 126 118 106 112 118 123 125 126 127 120 119 116 118 129 137 49 53 116 202 199 214 114 71 38 46 49 52 53 45 40 61 99 87 75 72 56 30 39 42 77 62 56 52 58 53 61
100 107 109 106 103 107 117 122 128 133 123 122 126 130 139 111 45 74 91 137 148 131 159 107 -5 75 30 59 66 54 36 55 74 86 86 96 37 38 52 67 58 70 39 25 52 74 89
77 85 86 87 86 89 96 105 114 119 117 115 121 132 131 145 76 73 77 73 66 72 194 103 51 189 115 104 93 11 -43 25 53 55 72 106 78 78 75 70 45 54 53 77 93 82 88
68 75 74 74 62 69 80 90 100 108 107 107 116 130 122 66 74 70 67 37 34 90 189 171 208 239 94 43 26 83 59 26 53 42 57 62 41 40 35 42 41 33 92 81 67 82 113
74 73 73 70 72 72 76 76 84 92 90 80 83 91 103 76 104 56 44 59 116 211 194 119 61 33 71 71 23 61 78 73 122 160 110 69 84 71 68 105 41 102 122 138 112 139 129
66 70 66 66 65 64 63 56 49 64 74 67 66 64 59 64 64 61 52 73 193 145 115 130 141 140 191 92 85 86 60 122 54 39 149 94 133 74 61 104 114 102 125 170 153 89 55
69 71 78 66 54 56 55 51 58 71 82 68 54 54 57 64 63 82 96 134 151 91 144 219 237 187 102 104 76 79 31 51 73 49 65 95 80 51 57 58 94 97 106 70 90 97 122
57 65 71 76 85 80 67 61 66 83 84 64 84 78 58 78 72 103 132 160 120 98 102 120 95 150 171 197 142 52 57 67 30 46 57 62 102 50 59 50 69 79 70 98 122 150 143
50 58 73 81 77 75 83 82 83 86 77 41 72 93 137 79 105 144 199 177 75 75 97 81 64 60 102 162 150 225 237 141 29 19 28 71 86 78 76 24 45 132 123 90 93 91 125
52 60 71 79 79 76 76 79 78 91 92 58 135 125 146 88 132 142 156 194 161 117 108 83 111 79 92 113 149 144 157 202 129 205 216 170 83 128 90 71 52 63 62 90 161 140 155
45 59 68 68 64 61 69 71 76 84 47 109 166 145 111 96 182 128 116 126 106 113 114 133 72 67 63 101 105 93 94 98 96 109 91 152 240 282 152 77 102 67 75 69 91 87 104
49 62 61 55 53 58 61 63 60 71 63 90 219 214 220 171 131 157 138 93 87 107 129 158 150 164 154 136 132 132 108 69 105 123 -12 -4 141 150 200 120 99 88 94 51 40 139 136
78 73 63 48 49 55 52 51 55 71 71 124 236 225 156 190 122 85 87 119 111 104 65 82 179 159 99 118 118 126 131 123 53 94 -1 -123 82 158 145 99 105 104 84 65 32 58 74
82 72 61 46 34 30 34 46 62 66 80 154 261 246 156 155 110 106 79 65 62 75 59 62 42 54 96 139 86 77 98 127 111 115 150 -34 56 253 235 91 97 110 81 63 65 63 9
21 23 23 27 29 24 32 46 56 53 88 198 191 247 223 161 96 114 116 83 49 30 28 35 69 76 98 102 103 149 201 182 227 233 145 139 -119 69 244 301 254 117 116 77 97 74 46
14 12 13 15 22 30 47 61 61 57 85 116 185 169 271 199 132 117 77 95 76 48 22 20 -8 78 67 42 66 86 87 100 73 89 69 72 -71 -49 -12 152 454 210 96 48 111 96 68
13 6 7 17 33 48 47 46 44 42 47 111 89 196 275 196 126 86 71 69 88 37 36 17 -2 -3 43 64 86 113 108 115 100 71 65 49 -4 -110 -24 147 174 227 161 101 116 151 104
14 9 17 31 39 45 51 56 59 66 63 94 130 93 151 197 238 101 79 83 100 79 46 34 21 28 38 66 87 118 133 107 53 74 108 5 44 27 -126 64 228 188 51 29 38 84 45
8 12 20 29 35 51 57 59 60 60 66 86 140 77 148 245 225 144 174 107 46 52 60 47 43 40 53 76 84 86 84 31 61 53 54 180 265 41 -36 -15 20 -59 205 13 134 124 32
7 22 26 39 43 42 50 52 61 65 79 138 200 96 175 264 194 139 91 66 41 83 87 66 69 70 114 104 92 94 104 74 59 35 67 101 209 193 103 64 19 63 64 40 83 76 74
23 24 35 25 25 34 26 24 52 55 38 75 186 248 198 251 293 76 99 46 69 35 48 67 95 99 87 130 127 103 120 123 85 41 43 46 71 66 -85 148 172 85 49 38 12 141 125

GFSGBSN_con_3kmhel_261.txt.gz
Helicity
152 91 78 94 123 104 110 127 142 108 83 67 63 49 51 36 32 31 32 44 63 74 75 80 105 159 68 88 75 6 2 25 14 28 11 32 100 70 76 47 72 59 5 35 43 41 31
236 211 146 123 170 100 113 127 136 127 118 99 74 56 49 50 41 49 49 43 46 54 65 74 85 126 40 74 89 5 -23 33 24 35 18 43 69 56 15 31 31 30 34 -15 -5 -10 6
264 262 216 152 111 65 89 113 98 103 121 96 81 69 70 62 61 57 62 54 53 39 40 45 45 20 53 49 59 68 58 40 58 55 40 56 33 74 29 22 23 44 30 -0 -36 -4 108
147 197 185 90 76 89 167 139 128 118 121 111 100 89 88 86 69 63 67 63 52 46 33 30 23 9 49 95 32 28 50 69 46 38 37 45 36 91 56 41 21 35 30 48 -12 53 5
143 128 162 121 126 191 185 158 130 123 108 117 124 103 102 111 108 96 97 75 68 50 27 25 30 6 48 47 56 25 37 65 57 54 56 39 71 78 77 80 80 69 72 80 95 35 154
155 148 159 182 160 161 167 161 121 123 111 101 120 124 116 141 163 163 132 109 59 93 81 49 74 133 53 81 44 98 46 26 62 95 103 91 98 110 109 109 136 82 86 83 86 -35 85
120 138 146 159 137 136 138 124 110 109 106 120 137 137 135 147 149 160 190 111 106 129 127 126 107 121 158 105 100 74 56 39 24 74 121 95 132 171 95 75 73 83 78 92 58 5 19
100 103 110 117 114 116 114 111 100 101 112 118 127 129 124 120 115 144 104 108 116 77 115 86 70 73 38 62 142 87 78 91 94 91 83 132 138 124 90 63 56 70 77 83 69 29 50
116 99 97 104 97 92 100 88 90 100 104 107 115 123 138 130 90 69 68 101 75 111 23 -19 98 137 170 111 129 98 144 113 161 125 97 108 127 81 69 70 75 72 100 105 86 81 91
121 115 91 85 77 77 77 79 86 92 94 103 114 135 156 165 77 111 74 69 50 51 64 16 25 37 76 121 129 118 81 85 127 139 102 117 84 101 87 88 82 115 74 40 43 84 150
98 90 84 76 76 69 67 72 77 76 80 95 110 132 155 110 100 104 20 28 41 43 106 83 56 52 25 67 81 55 22 75 79 87 112 148 99 80 92 108 79 90 30 41 76 86 107
82 74 74 76 73 66 65 60 59 66 76 90 99 114 139 102 105 31 36 53 66 142 117 128 97 112 78 82 74 60 62 54 80 117 70 167 49 77 68 45 74 71 72 56 109 109 186
65 67 67 66 59 59 57 52 55 57 74 91 103 108 109 90 79 29 88 109 178 182 127 185 208 248 287 208 144 49 45 65 105 143 93 65 153 151 61 78 45 35 76 152 189 238 290
62 65 62 61 65 62 60 54 54 54 69 81 97 102 57 40 32 78 107 192 216 185 160 158 181 198 271 253 201 139 104 103 40 91 139 140 81 92 141 68 57 28 66 127 192 213 202
56 64 64 60 62 60 55 50 52 59 77 96 123 68 83 31 42 74 158 208 106 89 165 183 125 98 147 298 218 219 239 161 12 6 54 96 133 152 104 -0 27 58 82 43 12 87 188
57 69 76 79 68 60 55 53 56 69 81 96 89 88 81 32 56 111 189 137 83 36 64 112 106 102 91 137 203 252 224 177 121 -81 -120 52 9 23 11 69 18 37 11 66 58 140 147
58 66 62 56 60 64 63 53 55 67 73 91 98 155 63 82 100 175 176 110 81 48 65 103 108 111 102 86 97 113 130 99 64 99 -33 -126 4 7 75 -20 57 56 99 181 258 108 150
60 59 54 55 58 55 53 57 64 80 102 89 117 184 58 82 148 127 130 117 95 113 122 141 153 141 139 118 104 107 88 104 97 20 33 -82 -0 76 -51 37 38 73 64 -6 81 259 194
66 53 46 46 52 61 62 65 69 99 109 97 150 176 63 108 138 124 95 99 98 87 98 140 160 157 164 179 156 224 158 124 167 179 79 45 38 -9 -32 21 131 218 305 401 333 77 52
55 47 44 45 50 46 49 47 59 99 106 103 127 177 98 102 126 139 136 121 137 165 181 202 162 108 121 144 158 142 117 87 112 139 99 54 106 119 85 112 127 97 115 156 265 234 99
47 44 36 38 41 44 47 59 75 98 117 132 139 131 151 126 105 103 117 153 148 164 180 199 176 213 217 173 133 113 108 101 121 130 176 170 223 193 120 80 66 57 40 64 88 176 178
36 33 38 38 37 41 48 64 83 91 113 150 158 168 187 150 135 142 124 136 117 106 104 111 155 179 214 221 221 187 184 155 77 117 152 185 192 230 161 176 105 -2 -3 43 64 37 18
52 44 47 47 47 52 64 71 60 64 86 126 99 102 140 152 164 182 149 135 143 140 116 88 84 98 119 120 112 99 91 129 151 136 159 143 172 170 98 143 177 94 -0 -58 -61 -25 39
93 73 56 56 55 50 43 42 39 38 67 105 98 126 162 152 142 148 119 116 122 128 140 115 142 126 70 56 77 59 64 102 138 132 134 178 184 187 149 125 116 98 -9 24 87 61 112
77 74 57 39 31 19 17 19 26 40 60 110 56 145 161 175 140 103 91 86 92 90 81 74 49 54 55 65 93 138 142 169 160 141 168 210 172 227 263 179 160 64 58 73 22 -57 11
45 41 37 36 28 24 21 18 23 37 58 130 103 119 163 179 187 127 124 117 116 98 70 50 29 38 73 115 160 229 251 199 214 187 36 55 63 184 250 280 140 42 17 -0 36 -23 -53
41 34 27 27 22 16 17 21 27 40 55 115 118 113 211 233 187 185 236 224 150 126 126 72 48 64 64 115 179 210 192 150 198 150 139 110 129 199 193 201 151 65 -8 1 68 81 12
40 33 28 29 25 20 21 27 32 45 55 114 107 91 171 246 191 158 170 160 122 106 119 171 101 66 101 185 162 150 172 162 146 120 141 146 164 140 163 172 110 57 3 9 11 -64 -105
47 46 45 36 26 19 15 19 35 46 53 64 128 127 126 195 296 210 101 114 126 136 134 138 140 83 59 96 70 3 206 91 73 109 119 108 136 154 206 203 159 25 6 -5 -59 -178 -211

GFSGBSN_con_3kmhel_264.txt.gz
Helicity
99 85 84 79 74 62 60 56 65 68 59 50 48 39 39 41 35 34 41 47 48 67 84 101 110 158 76 89 57 51 28 23 26 15 15 34 64 74 98 96 73 37 52 71 128 83 58
74 69 81 87 72 75 81 95 85 69 70 64 64 57 53 52 53 48 37 39 42 44 61 71 78 107 56 99 82 84 49 40 33 35 26 44 60 105 48 37 69 46 35 -8 -29 -13 8
95 109 125 150 116 105 73 87 77 82 79 76 68 67 62 57 53 57 56 40 28 34 45 57 41 17 88 68 72 66 56 42 53 61 54 64 79 97 54 22 65 37 6 -24 -60 -2 -5
119 123 127 159 207 176 136 93 95 83 88 72 70 87 82 76 73 73 73 64 49 42 52 57 43 33 53 44 43 24 25 41 55 49 70 46 58 70 77 51 56 53 47 43 28 33 31
160 135 104 170 139 184 131 101 98 84 135 101 98 103 97 115 117 106 118 101 63 33 44 63 77 70 38 51 63 48 97 57 73 68 70 69 91 98 121 100 94 93 93 62 25 32 64
177 155 170 187 177 118 87 38 34 132 207 161 151 132 141 158 136 139 147 152 71 97 87 76 155 125 79 82 107 71 49 40 59 94 146 127 148 152 179 173 172 109 102 91 52 -48 55
163 155 161 177 179 165 101 116 176 227 201 164 173 167 174 177 185 172 160 87 117 121 158 99 125 140 139 138 124 179 156 122 118 113 119 98 173 214 140 144 139 117 92 91 76 74 82
159 154 171 189 192 189 177 185 193 193 158 157 153 157 159 172 191 191 106 110 119 65 59 44 15 53 23 73 156 113 115 162 146 129 135 183 166 117 99 111 127 119 114 97 70 65 62
146 157 156 161 156 151 128 138 134 140 138 148 145 148 165 175 170 72 87 166 106 72 46 27 63 85 108 127 151 65 117 137 138 170 154 121 157 88 82 94 111 99 125 108 96 79 77
124 119 116 121 113 115 125 120 127 133 126 134 138 152 181 225 74 80 79 124 65 28 61 6 36 -10 3 41 89 82 95 123 163 139 129 161 128 109 108 125 110 120 101 95 121 155 157
122 114 111 102 85 93 97 107 114 106 112 118 126 141 174 124 51 73 66 90 21 26 108 74 90 33 45 33 25 35 53 147 128 116 141 101 100 101 140 123 51 117 57 73 71 102 98
102 96 93 83 80 92 90 91 89 86 102 109 122 132 145 53 61 56 74 58 52 113 91 147 127 183 197 246 206 146 86 55 61 97 92 97 137 158 180 124 74 23 33 16 44 48 135
83 79 88 80 72 76 79 79 79 89 94 95 111 119 96 48 69 85 96 98 133 123 119 155 199 175 231 282 274 288 208 156 163 154 166 114 89 88 92 118 101 75 121 220 186 190 200
81 83 74 78 72 69 64 69 78 87 95 111 136 117 64 49 71 90 103 152 143 114 176 158 132 120 185 195 233 198 181 219 224 184 195 187 64 120 188 124 119 163 167 170 298 301 178
73 75 64 76 66 60 60 66 85 94 117 130 116 92 94 81 81 73 126 141 89 147 145 107 75 107 144 164 172 193 175 154 125 163 248 207 121 160 65 90 84 104 153 140 167 108 181
69 83 83 79 57 58 64 67 79 99 116 132 108 108 103 95 83 108 153 110 102 105 102 99 109 123 125 92 132 140 203 176 174 207 173 124 75 5 21 54 68 104 79 106 109 161 182
63 71 73 80 69 70 77 68 79 102 126 137 109 120 95 104 96 162 131 94 83 86 92 126 134 111 84 76 81 68 104 112 152 167 138 106 100 69 -30 -10 84 107 167 123 68 120 126
63 65 62 69 63 58 69 69 78 86 113 92 101 128 89 99 168 146 136 89 105 88 115 88 97 102 91 73 49 92 115 109 106 64 104 83 169 61 -2 -25 -1 84 146 221 133 89 115
62 61 60 67 62 66 70 74 77 89 105 99 129 117 87 113 183 179 165 138 130 112 98 141 152 136 113 118 113 100 134 112 85 75 161 110 193 135 -12 101 204 232 301 313 283 190 48
69 67 64 62 57 58 67 72 74 97 121 104 122 125 134 129 126 133 148 134 132 164 123 176 152 168 210 176 171 177 133 119 142 121 142 102 179 193 185 119 95 92 42 -17 46 113 122
57 60 54 52 45 50 51 57 70 94 115 92 132 151 154 171 180 133 125 131 137 132 149 159 197 200 190 180 181 164 180 190 174 128 106 148 213 174 118 133 97 62 -5 -37 -74 -57 9
53 52 44 39 36 40 42 50 59 82 103 108 118 161 143 125 121 152 129 105 123 152 171 149 187 194 200 195 193 185 201 168 82 72 135 95 120 109 -11 -5 -12 -18 21 29 -24 -57 -50
45 38 42 43 39 41 49 59 59 71 98 95 97 107 114 119 149 155 120 157 188 163 142 190 181 164 139 108 136 160 100 129 131 139 132 157 163 151 58 112 98 28 3 65 100 75 61
93 67 59 54 53 56 58 69 73 62 76 83 95 107 110 97 115 108 124 129 119 105 137 69 77 116 103 107 82 80 72 54 65 88 173 182 172 168 136 114 125 120 107 83 86 69 38
98 104 86 62 55 54 54 50 42 43 31 52 60 94 120 103 91 78 97 86 84 85 80 110 69 80 73 75 97 111 80 58 78 114 156 216 227 267 222 187 171 35 93 85 65 3 2
72 78 72 62 49 45 37 33 28 29 28 64 59 107 134 142 105 93 80 82 90 108 115 102 53 47 57 132 159 150 124 113 81 130 146 150 120 195 285 275 203 153 75 160 80 62 71
49 44 45 46 41 33 28 28 23 29 27 70 77 118 174 181 126 112 179 155 157 162 134 88 81 91 81 145 160 137 118 161 198 173 167 139 141 176 152 202 181 143 76 74 52 75 43
55 61 54 43 33 29 28 23 19 26 36 81 77 133 186 194 144 169 176 154 140 146 161 160 107 97 100 115 138 184 232 181 200 125 159 155 189 214 191 158 157 188 57 85 82 34 25
42 46 44 42 41 37 25 17 18 26 34 65 104 126 135 196 211 178 94 113 158 147 149 181 199 168 180 150 121 100 225 176 222 189 43 170 131 156 216 279 166 127 90 50 69 -21 -23

GFSGBSN_con_3kmhel_267.txt.gz
Helicity
187 161 150 125 112 96 71 58 53 49 43 47 51 44 45 50 51 43 40 40 45 56 68 77 111 156 78 98 63 74 64 47 27 19 42 48 67 59 92 76 66 52 53 57 56 97 96
206 185 161 140 128 102 64 59 60 62 57 52 53 51 41 50 53 49 47 41 33 26 35 37 59 71 59 86 66 86 85 56 44 41 51 42 60 43 45 48 59 45 7 -19 -36 7 25
179 202 162 132 112 84 67 57 61 67 62 63 59 65 58 59 55 54 46 52 52 36 42 38 40 10 53 38 77 59 44 44 49 60 64 63 77 80 56 39 55 33 19 -17 -24 14 24
184 172 133 98 95 83 75 71 66 83 92 88 76 76 81 78 80 86 85 88 77 48 53 54 61 48 35 38 36 8 42 36 50 55 82 61 83 88 85 64 73 65 67 47 4 48 2
150 126 90 105 115 107 101 101 98 94 95 97 83 69 84 100 103 134 125 112 86 70 63 67 116 92 45 69 56 51 82 44 78 92 79 81 112 120 166 132 99 108 127 97 3 -87 55
125 106 102 94 110 120 139 133 149 127 106 124 111 93 151 180 179 163 154 79 47 80 104 88 163 123 66 100 156 128 69 53 68 105 108 96 185 194 207 209 187 127 112 109 92 17 25
175 109 109 126 141 150 92 97 128 120 106 106 111 166 235 233 233 221 106 73 98 95 132 104 125 126 95 115 103 135 140 196 167 189 145 159 184 178 107 141 179 143 123 108 91 77 37
73 79 109 44 104 118 118 186 171 142 169 154 200 242 246 242 185 137 120 103 88 62 68 65 46 30 -9 59 58 -12 101 158 173 149 169 193 219 105 113 122 131 136 133 117 74 55 45
120 125 138 151 182 194 177 191 172 183 190 211 224 218 217 213 116 84 76 106 93 65 41 49 47 94 89 83 80 2 73 112 130 160 153 146 175 173 132 135 157 137 172 135 134 108 99
147 164 180 160 152 172 172 150 146 176 176 176 191 189 211 204 93 78 76 110 71 14 86 87 147 89 58 64 100 77 61 133 174 129 103 128 114 138 137 133 97 156 106 108 132 159 175
142 148 152 143 141 135 123 131 139 166 169 166 172 175 191 140 73 88 72 90 37 33 152 121 129 53 35 127 105 174 44 99 128 148 174 147 124 107 106 99 115 118 47 92 122 156 160
132 114 110 117 103 95 92 104 130 137 139 158 167 153 139 93 74 56 81 52 43 110 115 149 143 184 153 214 234 175 142 116 80 125 146 142 128 125 111 92 119 113 84 77 78 119 161
122 96 91 83 87 82 96 111 121 129 150 156 160 148 72 66 71 100 86 72 104 96 95 151 204 191 161 209 246 217 162 220 156 171 178 99 113 146 152 128 103 132 140 131 137 197 235
96 83 78 72 76 84 95 122 114 132 151 160 165 105 82 71 97 100 83 109 96 112 167 141 140 123 143 198 194 228 156 190 303 192 136 132 117 140 166 92 56 98 144 189 160 115 132
79 74 78 81 85 91 98 108 130 133 152 171 106 100 99 128 109 76 100 109 82 150 142 134 122 168 211 191 161 195 207 188 223 208 158 122 115 194 115 92 82 55 94 79 157 192 164
66 63 73 83 88 95 102 120 137 138 143 144 83 92 120 137 108 98 108 98 143 154 134 121 170 191 193 141 152 195 186 202 201 233 181 152 63 31 59 92 92 133 80 128 183 238 191
62 65 82 83 95 101 110 113 131 143 140 90 100 104 106 138 102 137 103 108 150 141 155 145 138 147 102 82 68 80 136 138 144 132 97 114 126 134 95 15 37 119 60 92 94 126 107
63 64 70 71 84 84 90 104 122 138 121 102 95 113 134 118 143 134 143 133 146 157 139 144 121 117 107 97 72 58 80 111 92 33 76 46 153 108 63 20 41 99 146 112 189 205 190
58 58 62 72 74 74 85 100 116 136 129 88 115 96 92 102 122 162 147 148 151 153 170 181 168 128 117 80 86 65 77 143 174 162 205 175 214 139 90 159 268 246 292 272 249 220 215
46 50 57 64 73 81 86 98 113 134 137 74 105 118 131 148 155 150 159 170 181 143 135 143 152 160 153 158 192 182 163 195 230 197 187 115 157 191 210 206 169 147 130 115 75 151 117
52 51 52 59 66 73 88 99 112 134 133 85 140 120 114 136 193 179 175 164 176 204 189 161 168 204 177 142 148 153 219 163 110 121 194 198 188 158 125 117 105 94 80 46 75 85 111
46 49 49 54 59 67 78 88 99 115 106 94 105 128 161 168 173 155 142 153 174 171 158 162 195 194 181 168 180 184 182 187 126 164 154 177 196 144 109 33 26 33 54 101 96 104 99
30 35 42 44 49 57 59 65 75 91 88 81 110 133 142 153 144 147 134 156 150 119 127 164 148 132 146 153 154 142 140 148 182 186 174 201 190 150 109 79 74 41 61 73 79 56 71
39 28 34 42 48 52 53 53 59 71 79 77 102 113 147 135 127 117 119 108 99 126 130 89 97 132 104 94 79 94 121 144 187 201 186 194 186 187 158 121 117 183 160 103 43 95 99
74 69 55 55 60 61 53 51 52 69 73 88 93 114 124 134 92 80 73 87 97 92 112 105 65 98 110 100 136 152 135 124 151 129 108 163 239 277 252 189 140 -4 9 32 100 74 62
65 66 74 71 59 52 45 46 42 46 51 66 64 72 109 94 60 68 85 84 97 109 129 103 94 88 139 180 173 212 211 167 140 80 126 93 126 193 283 251 190 211 185 173 65 61 84
46 50 48 49 48 44 37 40 35 28 31 62 60 73 121 87 78 110 93 74 80 121 127 136 129 114 123 174 208 206 220 200 213 183 167 156 171 230 218 235 217 236 122 96 123 126 71
28 27 25 34 37 32 27 29 27 18 20 67 63 70 119 84 79 111 108 119 162 170 167 99 106 101 139 189 232 173 196 136 159 177 146 148 183 208 202 191 195 221 236 194 199 163 103
37 36 39 37 33 28 25 26 20 7 6 59 73 90 107 114 43 49 57 70 116 120 169 176 163 152 136 202 197 207 244 191 121 54 69 167 215 194 218 261 140 117 145 119 89 55 27